Flag for U.S.A. Weather past 2 weeks in Glendale, Arizona, U.S.A.

Now
84 °F

Clear.


Feels Like: 85 °F
Forecast: 80 / 91 °F
Wind: 7 mph from Southeast

Location: Phoenix-Deer Valley Municipal Airport

Current Time: Sep 16, 2014 at 4:32:51 AM

Latest Report: Sep 16, 2014 at 3:53 AM


Visibility: 10 mi

Pressure: 29.82 "Hg

Humidity: 49%

Dew point: 63 °F

Location of GlendaleLocation

Historic Weather in Glendale — Graph

°F

Glendale temperature yesterday

Maximum temperature yesterday: 101 °F (at 2:53 PM)
Minimum temperature yesterday: 85 °F (at 4:53 AM)
Average temperature yesterday: 92 °F

Past Weeks' High & Low Weather Summary

 TemperatureHumidityPressure
High103 °F (Sep 1, 4:53 PM)100% (Sep 8, 8:03 AM)29.94 "Hg (Sep 8, 8:03 AM)
Low70 °F (Sep 8, 3:53 AM)9% (Sep 1, 4:53 PM)29.54 "Hg (Sep 8, 8:03 AM)
Average88 °F40%29.75 "Hg
* Reported Sep 1 2:53 AM — Sep 16 2:53 AM, Glendale, Weather by CustomWeather, © 2014

Note: Actual official high and low records may vary slightly from our data, if they occured in-between our weather recording intervals... More about our weather records

Advertising

Glendale weather history for previous 24 hours

 ConditionsComfort  
Time TempWeatherWind HumidityBarometerVisibility
2:53 AM
Sep 16
84 °FPassing clouds.5 mph51%29.83 "Hg10 mi
1:53 AM85 °FClear.13 mph50%29.82 "Hg10 mi
12:53 AM88 °FClear.10 mph40%29.80 "Hg10 mi
11:53 PM
Sep 15
89 °FClear.7 mph31%29.78 "Hg10 mi
10:53 PM91 °FClear.6 mph28%29.77 "Hg10 mi
9:53 PM92 °FClear.5 mph30%29.75 "Hg10 mi
8:53 PM93 °FClear.5 mph27%29.75 "Hg10 mi
7:53 PM95 °FClear.7 mph25%29.74 "Hg10 mi
6:53 PM98 °FPassing clouds.8 mph24%29.72 "Hg10 mi
5:53 PM99 °FSunny.No wind23%29.71 "Hg10 mi
4:53 PM101 °FSunny.No wind22%29.70 "Hg10 mi
3:53 PM99 °FSunny.No wind23%29.70 "Hg10 mi
2:53 PM101 °FSunny.6 mph22%29.72 "Hg10 mi
1:53 PM98 °FSunny.No wind25%29.74 "Hg10 mi
12:53 PM97 °FSunny.No wind26%29.78 "Hg10 mi
11:53 AM97 °FSunny.3 mph26%29.80 "Hg10 mi
10:53 AM95 °FSunny.6 mph28%29.81 "Hg10 mi
9:53 AM93 °FSunny.8 mph30%29.82 "Hg10 mi
8:53 AM91 °FSunny.9 mph33%29.82 "Hg10 mi
7:53 AM88 °FSunny.7 mph36%29.81 "Hg10 mi
6:53 AM85 °FSunny.6 mph39%29.80 "Hg10 mi
5:53 AM85 °FClear.No wind39%29.78 "Hg10 mi
4:53 AM85 °FClear.No wind40%29.77 "Hg10 mi
Weather by CustomWeather, © 2014

See weather overviewHow to use our weather pages